User: anonymous   Login
Location: Sabalos
(43.2860°N, 0.1414°E)
Time: 13:53:06
(UTC+00:00)
Language:

Cosmos 1758 Rocket - Orbit

View from above orbital plane
View from above orbital plane
View from above satellite
View from above satellite

Ground track
Ground track

The orbit data is extracted from the following two-line orbital elements,

1 16792U 86046B   20263.19297354  .00000071  00000-0  57804-5 0  9999
2 16792  82.4850 162.5663 0023648 338.1128 181.9911 14.83251235851279
Epoch (UTC): 19 September 2020 04:37:52
Eccentricity: 0.0023648
inclination: 82.4850°
perigee height: 602 km
apogee height: 635 km
right ascension of ascending node: 162.5663°
argument of perigee: 338.1128°
revolutions per day: 14.83251235
mean anomaly at epoch: 181.9911°
orbit number at epoch: 85127

The dashed part of the orbit path shows where the satellite is in the earth's shadow,  

DLR